Weather observations for the past three days for
Omaha, Millard Airport
Metric (Imperial)
Date Time (cdt) Wind (kph) Vis. (km) Weather Sky Cond. Temperature (ºC) Relative Humidity Wind Chill (°C) Heat Index (°C) Pressure Precipitation (cm)
Air Dwpt 6 hour altimeter (cm) sea level (mb) 1 hr 3 hr 6 hr
Max. Min.
02 19:15 S 11 16.09 Fair CLR 33.6 20.7 47% 37 75.72 0.0
02 18:55 S 13 16.09 Fair CLR 34.5 20.5 44% 37 75.74 0.0
02 18:35 S 9 16.09 Fair CLR 35.1 20.6 43% 38 75.74 0.0
02 18:15 S 9 16.09 Fair CLR 35.5 20.1 40% 38 75.74 0.0
02 17:55 S 15 16.09 Fair CLR 35.5 19.8 40% 38 75.74 0.0
02 17:35 S 17 16.09 Fair CLR 35.6 20 40% 38 75.74 0.0
02 17:15 S 20 G 26 16.09 Fair CLR 36 20.5 40% 39 75.74 0.0
02 16:55 S 15 16.09 Fair CLR 36 20.8 41% 40 75.74 0.0
02 16:35 SW 15 16.09 Fair CLR 36.3 20 38% 39 75.77 0.0
02 16:15 S 9 G 26 16.09 Fair CLR 36.1 20.3 40% 39 75.77 0.0
02 15:55 S 11 16.09 Fair CLR 36.2 20.6 40% 40 75.77 0.0
02 15:35 S 20 G 26 16.09 Fair CLR 35.5 20 40% 38 75.79 0.0
02 15:15 S 13 G 26 16.09 Fair CLR 35 20.2 42% 38 75.79 0.0
02 14:55 S 13 G 30 4.83 Fair with Haze CLR 34.7 19.8 42% 37 75.82 0.0
02 14:35 SW 17 0.00 Fair CLR 34.1 19.3 42% 36 75.82 0.0
02 14:15 S 13 16.09 Partly Cloudy SCT120 0 0 0% 75.84 0.0
02 13:55 SW 9 G 26 16.09 Partly Cloudy SCT120 0 0 0% 75.84 0.0
02 13:35 S 17 16.09 Partly Cloudy SCT120 0 0 0% 75.87 0.0
02 13:15 S 13 16.09 Fair CLR 0 0 0% 75.87 0.0
02 12:55 S 7 16.09 Fair CLR 0 0 0% 75.9 0.0 0.03
02 12:35 S 11 16.09 Fair CLR 0 0 0% 75.92 0.0
02 12:15 S 15 16.09 Fair CLR 0 0 0% 75.92 0.0
02 11:55 S 9 16.09 Partly Cloudy SCT120 0 0 0% 75.92 0.0
02 11:35 S 9 16.09 Partly Cloudy SCT120 0 0 0% 75.92 0.0
02 10:55 S 9 16.09 Mostly Cloudy BKN110 0 0 0% 75.95 0.0
02 10:35 SE 7 16.09 Mostly Cloudy BKN110 0 0 0% 75.95 0.0
02 10:15 S 11 16.09 Mostly Cloudy BKN110 0 0 0% 75.92 0.0
02 09:55 SE 6 16.09 Mostly Cloudy BKN110 0 0 0% 75.92 0.0 0.03 0.03
02 09:35 Calm 16.09 Mostly Cloudy BKN110 0 0 0% 75.92 0.0 0.03
02 09:15 S 6 G 28 16.09 Mostly Cloudy SCT049 SCT085 BKN120 0 0 0% 75.92 0.0 0.03
02 08:55 S 7 16.09 Light Rain SCT050 SCT075 BKN110 0 0 0% 75.95 0.0
02 08:35 SE 11 16.09 Fair CLR 0 0 0% 75.95 0.0
02 08:15 SE 9 16.09 Thunderstorm in Vicinity CLR 0 0 0% 75.97 0.0
02 07:55 Calm 16.09 Fair CLR 0 0 0% 75.97 0.0
02 07:35 Calm 16.09 Fair CLR 0 0 0% 75.97 0.0
02 07:15 Calm 16.09 Fair CLR 0 0 0% 75.95 0.0
02 06:55 Calm 16.09 Fair CLR 0 0 0% 75.95 0.0
02 06:35 Calm 16.09 Fair CLR 0 0 0% 75.92 0.0
02 06:15 Calm 16.09 Fair CLR 0 0 0% 75.92 0.0
02 05:55 Calm 16.09 Fair CLR 0 0 0% 75.92 0.0
02 05:35 Calm 16.09 Partly Cloudy SCT120 0 0 0% 75.95 0.0
02 05:15 Calm 16.09 Partly Cloudy SCT120 0 0 0% 75.95 0.0
02 04:55 Calm 16.09 Fair CLR 0 0 0% 75.95 0.0
02 04:35 Calm 16.09 Fair CLR 0 0 0% 75.95 0.0
02 04:15 Calm 16.09 Fair CLR 0 0 0% 75.95 0.0
02 03:55 Calm 16.09 Fair CLR 0 0 0% 75.95 0.0
02 03:35 Calm 16.09 Fair CLR 0 0 0% 75.97 0.0
02 03:15 N 7 16.09 Fair CLR 0 0 0% 75.95 0.0
02 02:35 Calm 16.09 Fair CLR 0 0 0% 75.9 0.0
02 02:15 Calm 16.09 Thunderstorm in Vicinity CLR 0 0 0% 75.9 0.0
02 01:55 SW 9 16.09 Fair CLR 0 0 0% 75.92 0.0
02 01:35 Calm 16.09 Fair CLR 0 0 0% 75.92 0.0
02 01:15 S 6 16.09 Fair CLR 0 0 0% 75.87 0.0
02 00:55 SE 6 16.09 Fair CLR 0 0 0% 75.87 0.0
02 00:35 SE 6 16.09 Fair CLR 0 0 0% 75.87 0.0
02 00:15 SE 7 16.09 Fair CLR 0 0 0% 75.87 0.0
01 23:55 SE 6 16.09 Fair CLR 0 0 0% 75.87 0.0
01 23:35 SE 11 16.09 Fair CLR 0 0 0% 75.87 0.0
01 23:15 SE 11 16.09 Fair CLR 0 0 0% 75.9 0.0
01 22:55 SE 9 16.09 Fair CLR 0 0 0% 75.9 0.0
01 22:35 Calm 16.09 Fair CLR 0 0 0% 75.9 0.0
01 22:15 Calm 16.09 Partly Cloudy SCT120 0 0 0% 75.87 0.0
01 21:55 SE 7 16.09 Fair CLR 0 0 0% 75.87 0.0
01 21:35 SE 6 16.09 Partly Cloudy SCT120 0 0 0% 75.84 0.0
01 21:15 SE 6 16.09 Fair CLR 0 0 0% 75.84 0.0
01 20:55 SE 6 16.09 Fair CLR 0 0 0% 75.82 0.0
01 20:35 SE 6 16.09 Fair CLR 0 0 0% 75.79 0.0
01 20:15 SE 7 16.09 Fair CLR 0 0 0% 75.77 0.0
01 19:55 SE 7 16.09 Fair CLR 0 0 0% 75.77 0.0
01 19:35 S 7 16.09 Fair CLR 0 0 0% 75.77 0.0
01 19:15 S 9 16.09 Fair CLR 0 0 0% 75.77 0.0
01 18:55 S 9 16.09 Fair CLR 0 0 0% 75.79 0.0
01 18:35 S 9 16.09 Fair CLR 0 0 0% 75.79 0.0
01 18:15 S 6 16.09 Fair CLR 0 0 0% 75.79 0.0
01 17:55 SW 9 16.09 Fair CLR 0 0 0% 75.82 0.0
01 17:35 S 9 16.09 Fair CLR 0 0 0% 75.82 0.0
01 17:15 S 19 G 30 16.09 Fair CLR 0 0 0% 75.82 0.0
01 16:55 S 15 16.09 Fair CLR 0 0 0% 75.84 0.0
01 16:35 S 13 16.09 Fair CLR 0 0 0% 75.84 0.0
01 16:15 S 17 G 26 16.09 Fair CLR 0 0 0% 75.87 0.0
01 15:55 S 13 G 28 16.09 Fair CLR 0 0 0% 75.87 0.0
01 15:35 S 13 16.09 Fair CLR 0 0 0% 75.9 0.0
01 15:15 S 17 G 28 16.09 Fair CLR 0 0 0% 75.92 0.0
01 14:55 S 17 G 30 16.09 Fair CLR 0 0 0% 75.95 0.0
01 14:35 S 13 16.09 Fair CLR 0 0 0% 75.95 0.0
01 14:15 S 11 16.09 Fair CLR 0 0 0% 75.95 0.0
01 13:55 SE 13 16.09 Fair CLR 0 0 0% 75.97 0.0
01 13:35 SE 15 16.09 Fair CLR 0 0 0% 75.97 0.0
01 13:15 S 9 16.09 Fair CLR 0 0 0% 76 0.0
01 12:55 S 7 16.09 Fair CLR 0 0 0% 76 0.0
01 12:35 S 9 16.09 Fair CLR 0 0 0% 76.02 0.0
01 12:15 S 9 16.09 Fair CLR 0 0 0% 76.02 0.0
01 11:55 S 11 16.09 Fair CLR 0 0 0% 76.02 0.0
01 11:35 SE 13 16.09 Fair CLR 0 0 0% 76.05 0.0
01 11:15 S 7 16.09 Fair CLR 0 0 0% 76.05 0.0
01 10:55 S 11 16.09 Fair CLR 0 0 0% 76.05 0.0
01 10:35 SW 7 16.09 Fair CLR 0 0 0% 76.02 0.0
01 10:15 SW 7 16.09 Fair CLR 0 0 0% 76.02 0.0
01 09:55 SW 7 16.09 Fair CLR 0 0 0% 76.05 0.0
01 09:35 S 6 16.09 Fair CLR 0 0 0% 76.05 0.0
01 09:15 SE 7 16.09 Fair CLR 0 0 0% 76.07 0.0
01 08:55 SE 7 16.09 Fair CLR 0 0 0% 76.05 0.0
01 08:35 SE 11 16.09 Fair CLR 0 0 0% 76.05 0.0
01 08:15 SE 9 16.09 Fair CLR 0 0 0% 76.07 0.0
01 07:55 SE 9 16.09 Fair CLR 0 0 0% 76.05 0.0
01 07:35 SE 9 16.09 Fair CLR 0 0 0% 76.05 0.0
01 07:15 SE 9 16.09 Fair CLR 0 0 0% 76.02 0.0
01 06:55 SE 7 16.09 Fair CLR 0 0 0% 76 0.0
01 06:35 SE 6 16.09 Fair CLR 0 0 0% 76.02 0.0
01 06:15 SE 7 16.09 Fair CLR 0 0 0% 76.02 0.0
01 05:55 SE 6 16.09 Partly Cloudy SCT110 23.7 21.5 88% 76.02 0.0
01 05:35 SE 6 16.09 Partly Cloudy SCT110 23.9 21.8 88% 24 76.02 0.0
01 05:15 SE 6 16.09 Partly Cloudy SCT120 0 0 0% 76.02 0.0
01 04:55 SE 7 16.09 Partly Cloudy SCT110 0 0 0% 76.02 0.0
01 04:35 SE 7 16.09 Mostly Cloudy BKN120 0 0 0% 76.05 0.0
01 04:15 SE 9 16.09 Overcast OVC110 0 0 0% 76.02 0.0
01 03:55 Calm 16.09 Overcast OVC110 0 0 0% 76.05 0.0
01 03:35 SE 6 16.09 Mostly Cloudy BKN110 0 0 0% 76.02 0.0
01 03:15 Calm 16.09 Mostly Cloudy BKN110 0 0 0% 76.02 0.0
01 02:55 Calm 16.09 Partly Cloudy SCT110 0 0 0% 76.05 0.0
01 02:35 Calm 16.09 Fair CLR 0 0 0% 76.02 0.0
01 02:15 Calm 16.09 Fair CLR 0 0 0% 76.05 0.0
01 01:55 Calm 16.09 Fair CLR 0 0 0% 76.05 0.0
01 01:35 Calm 16.09 Fair CLR 0 0 0% 76.05 0.0
01 01:15 Calm 16.09 Fair CLR 0 0 0% 76.05 0.0
01 00:55 Calm 16.09 Fair CLR 0 0 0% 76.05 0.0
01 00:35 Calm 16.09 Fair CLR 0 0 0% 76.07 0.0
01 00:15 Calm 16.09 Fair CLR 0 0 0% 76.07 0.0
31 23:55 Calm 16.09 Fair CLR 0 0 0% 76.07 0.0
31 23:35 Calm 16.09 Fair CLR 0 0 0% 76.07 0.0
31 23:15 Calm 16.09 Fair CLR 0 0 0% 76.07 0.0
31 22:55 Calm 16.09 Fair CLR 25.1 22.5 86% 26 76.07 0.0
31 22:35 Calm 16.09 Fair CLR 0 0 0% 76.05 0.0
31 22:15 Calm 16.09 Fair CLR 0 0 0% 76.05 0.0
31 21:55 Calm 16.09 Fair CLR 0 0 0% 76.02 0.0
31 21:35 Calm 16.09 Fair CLR 0 0 0% 76.02 0.0
31 20:55 Calm 16.09 Fair CLR 0 0 0% 76 0.0
31 20:35 Calm 16.09 Fair CLR 0 0 0% 75.97 0.0
31 20:15 Calm 16.09 Fair CLR 0 0 0% 75.97 0.0
31 19:55 Calm 16.09 Partly Cloudy SCT120 0 0 0% 76 0.0
31 19:35 Calm 16.09 Partly Cloudy SCT120 0 0 0% 76 0.0
31 19:15 Calm 16.09 Partly Cloudy SCT120 0 0 0% 76 0.0
31 18:35 Calm 16.09 Partly Cloudy SCT120 0 0 0% 76 0.0
31 18:15 Calm 16.09 Fair CLR 0 0 0% 76 0.0
31 17:55 Calm 16.09 Fair CLR 0 0 0% 76 0.0
31 17:35 Calm 16.09 Fair CLR 0 0 0% 76 0.0
31 17:15 W 7 16.09 Fair CLR 0 0 0% 76 0.0
31 16:55 SW 9 16.09 Fair CLR 0 0 0% 76.02 0.0
31 16:35 W 7 16.09 Fair CLR 0 0 0% 76.02 0.0
31 16:15 S 7 16.09 Fair CLR 0 0 0% 76.02 0.0
31 15:55 SW 9 16.09 Fair CLR 0 0 0% 76.02 0.0
31 15:35 S 9 16.09 Fair CLR 0 0 0% 76.02 0.0
31 15:15 SW 9 16.09 Fair CLR 0 0 0% 76.05 0.0
31 14:55 SW 9 16.09 Fair CLR 0 0 0% 76.05 0.0
31 14:35 W 13 16.09 Fair CLR 0 0 0% 76.05 0.0
31 14:15 W 7 16.09 Fair CLR 0 0 0% 76.05 0.0
31 13:55 SW 7 16.09 Fair CLR 0 0 0% 76.05 0.0
31 13:35 SW 7 16.09 Fair CLR 0 0 0% 76.05 0.0
31 13:15 W 7 16.09 Fair CLR 0 0 0% 76.05 0.0
31 12:55 Calm 16.09 Fair CLR 0 0 0% 76.05 0.0
31 12:35 Calm 16.09 Fair CLR 0 0 0% 76.05 0.0
31 12:15 Calm 16.09 Fair CLR 0 0 0% 76.05 0.0
31 11:55 W 6 16.09 Fair CLR 0 0 0% 76.02 0.0
31 11:35 NW 9 16.09 Fair CLR 0 0 0% 76.02 0.0
31 11:15 NW 7 16.09 Fair CLR 0 0 0% 76.02 0.0
31 10:55 W 9 16.09 Fair CLR 0 0 0% 76 0.0
31 10:35 NW 11 16.09 Fair CLR 0 0 0% 75.97 0.0
31 10:15 W 15 16.09 Fair CLR 25.1 21.1 79% 26 75.97 0.0
31 09:55 NW 9 16.09 Fair CLR 0 0 0% 75.97 0.0
31 09:35 Calm 16.09 Fair CLR 0 0 0% 75.95 0.0
31 09:15 Calm 16.09 Fair CLR 0 0 0% 75.95 0.0
31 08:55 NW 6 16.09 Fair CLR 0 0 0% 75.92 0.0
31 08:35 NW 15 16.09 Fair CLR 0 0 0% 75.95 0.0
31 08:15 W 17 16.09 Fair CLR 0 0 0% 75.95 0.0
31 07:55 W 9 16.09 Fair CLR 0 0 0% 75.95 0.0
31 07:35 S 6 16.09 Fair CLR 0 0 0% 75.95 0.0
31 07:15 Calm 16.09 Fair CLR 0 0 0% 75.92 0.0
31 06:55 Calm 16.09 Fair CLR 0 0 0% 75.87 0.0
31 06:35 Calm 11.27 Fair CLR 0 0 0% 75.84 0.0
31 06:15 Calm 16.09 Fair CLR 0 0 0% 75.82 0.0
31 05:55 Calm 16.09 Fair CLR 0 0 0% 75.82 0.0
31 05:35 Calm 16.09 Fair CLR 0 0 0% 75.79 0.0
31 05:15 Calm 16.09 Fair CLR 0 0 0% 75.79 0.0
31 04:55 Calm 16.09 Fair CLR 0 0 0% 75.77 0.0
31 04:35 Calm 16.09 Fair CLR 0 0 0% 75.77 0.0
31 04:15 NW 6 16.09 Fair CLR 0 0 0% 75.77 0.0
31 03:55 Calm 16.09 Fair CLR 0 0 0% 75.74 0.0
31 03:35 Calm 16.09 Fair CLR 0 0 0% 75.72 0.0
31 03:15 Calm 16.09 Fair CLR 0 0 0% 75.72 0.0
31 02:55 Calm 16.09 Fair CLR 0 0 0% 75.72 0.0
31 02:35 SE 6 16.09 Fair CLR 0 0 0% 75.72 0.0
31 02:15 SE 6 16.09 Fair CLR 0 0 0% 75.72 0.0
31 01:55 Calm 16.09 Fair CLR 0 0 0% 75.74 0.0
31 01:35 Calm 16.09 Fair CLR 0 0 0% 75.74 0.0
31 01:15 Calm 16.09 Fair CLR 0 0 0% 75.72 0.0
31 00:55 Calm 16.09 Fair CLR 0 0 0% 75.72 0.0
31 00:35 Calm 16.09 Fair CLR 0 0 0% 75.72 0.0
31 00:15 NW 6 16.09 Fair CLR 0 0 0% 75.69 0.0
30 23:55 Calm 16.09 Fair CLR 0 0 0% 75.69 0.0
30 23:35 Calm 16.09 Fair CLR 0 0 0% 75.69 0.0
30 23:15 Calm 16.09 Fair CLR 0 0 0% 75.69 0.0
30 22:55 Calm 16.09 Fair CLR 0 0 0% 75.72 0.0
30 22:35 Calm 16.09 Fair CLR 0 0 0% 75.72 0.0
30 22:15 Calm 16.09 Fair CLR 0 0 0% 75.72 0.0
30 21:55 Calm 16.09 Fair CLR 0 0 0% 75.72 0.0
30 21:35 Calm 16.09 Fair CLR 0 0 0% 75.72 0.0
30 21:15 Calm 16.09 Fair CLR 0 0 0% 75.72 0.0
30 20:55 Calm 16.09 Fair CLR 0 0 0% 75.69 0.0
30 20:35 Calm 16.09 Fair CLR 0 0 0% 75.69 0.0
30 20:15 Calm 16.09 Fair CLR 0 0 0% 75.69 0.0
30 19:55 Calm 16.09 Fair CLR 0 0 0% 75.67 0.0
30 19:35 Calm 16.09 Fair CLR 0 0 0% 75.67 0.0
Date Time (cdt) Wind (kph) Vis. (km) Weather Sky Cond. Air Dwpt Max. Min. Relative Humidity Wind Chill (°C) Heat Index (°C) altimeter (cm) sea level (mb) 1 hr 3 hr 6 hr
6 hour
Temperature (ºC) Pressure Precipitation (cm)